Location: Baller�as
(41.9020°N, 0.1554°W)
Time: 01:13:03
(UTC+00:00)

Cosmos 1602 - Pass Details

Date: 10 August 2020
Orbit: 513 x 535 km, 82.5° (Epoch: 22 September)

Event Time Altitude Azimuth Distance (km) Brightness Sun altitude
Exits shadow 21:40:44 70° 290° (WNW) 570 3.9 -23.8°
Drops below altitude 10° 21:44:35 10° 3° (N) 1,796 7.1 -24.2°
Sets 21:46:46 0° 6° (N) 2,694 8.0 -24.5°
